Satellite: NOAA-12
Catalog number: 21263
Epoch time: 13354.54404934
Element set: 92
Inclination: 098.6818 deg
RA of node: 018.3012 deg
Eccentricity: 0.0014306
Arg of perigee: 042.1933 deg
Mean anomaly: 110.6210 deg
Mean motion: 14.25611151 rev/day
Decay rate: 8.0e-07 rev/day^2
Epoch rev: 17510
Checksum: 239
Satellite: MET-3/5
Catalog number: 21655
Epoch time: 13354.14212168
Element set: 859
Inclination: 082.5569 deg
RA of node: 122.9266 deg
Eccentricity: 0.0013409
Arg of perigee: 029.6853 deg
Mean anomaly: 330.5028 deg
Mean motion: 13.17052779 rev/day
Decay rate: -3.0e-08 rev/day^2
Epoch rev: 7441
Checksum: 298
Satellite: MET-2/21
Catalog number: 22782
Epoch time: 13354.03285558
Element set: 927
Inclination: 082.5504 deg
RA of node: 315.4509 deg
Eccentricity: 0.0023252
Arg of perigee: 050.6774 deg
Mean anomaly: 018.9815 deg
Mean motion: 13.83719335 rev/day
Decay rate: 1.07e-06 rev/day^2
Epoch rev: 2534
Checksum: 297
Satellite: OKEAN-4
Catalog number: 23317
Epoch time: 13354.83021382
Element set: 407
Inclination: 082.5385 deg
RA of node: 235.0565 deg
Eccentricity: 0.0020062
Arg of perigee: 333.4563 deg
Mean anomaly: 153.2621 deg
Mean motion: 14.84914968 rev/day
Decay rate: 1.427e-05 rev/day^2
Epoch rev: 3663
Checksum: 283
Satellite: NOAA-14
Catalog number: 23455
Epoch time: 13354.47990022
Element set: 571
Inclination: 098.7916 deg
RA of node: 076.0022 deg
Eccentricity: 0.0009727
Arg of perigee: 182.2539 deg
Mean anomaly: 305.9150 deg
Mean motion: 14.13939098 rev/day
Decay rate: -2.4e-07 rev/day^2
Epoch rev: 97869
Checksum: 325
Satellite: NOAA-15
Catalog number: 25338
Epoch time: 13354.54320514
Element set: 0
Inclination: 098.7406 deg
RA of node: 343.8887 deg
Eccentricity: 0.0009714
Arg of perigee: 309.9976 deg
Mean anomaly: 157.7399 deg
Mean motion: 14.25313978 rev/day
Decay rate: 2.24e-06 rev/day^2
Epoch rev: 81139
Checksum: 330
Satellite: RESURS
Catalog number: 25394
Epoch time: 13354.02202203
Element set: 544
Inclination: 098.3885 deg
RA of node: 321.1883 deg
Eccentricity: 0.0002423
Arg of perigee: 082.7602 deg
Mean anomaly: 318.7936 deg
Mean motion: 14.24355581 rev/day
Decay rate: 8.6e-07 rev/day^2
Epoch rev: 80281
Checksum: 284
Satellite: FENGYUN1
Catalog number: 25730
Epoch time: 13354.15001486
Element set: 38
Inclination: 098.8972 deg
RA of node: 311.6027 deg
Eccentricity: 0.0025259
Arg of perigee: 251.4228 deg
Mean anomaly: 201.8772 deg
Mean motion: 14.11137878 rev/day
Decay rate: 2.707e-05 rev/day^2
Epoch rev: 75226
Checksum: 294
Satellite: OKEAN-0
Catalog number: 25860
Epoch time: 13354.02064233
Element set: 126
Inclination: 098.0182 deg
RA of node: 314.2729 deg
Eccentricity: 0.0000811
Arg of perigee: 109.1903 deg
Mean anomaly: 292.7758 deg
Mean motion: 14.74862984 rev/day
Decay rate: 9.51e-06 rev/day^2
Epoch rev: 77574
Checksum: 303
Satellite: NOAA-16
Catalog number: 26536
Epoch time: 13354.52461890
Element set: 487
Inclination: 099.0174 deg
RA of node: 048.8959 deg
Eccentricity: 0.0009839
Arg of perigee: 334.2287 deg
Mean anomaly: 162.6613 deg
Mean motion: 14.12960930 rev/day
Decay rate: 2.09e-06 rev/day^2
Epoch rev: 68288
Checksum: 343
Satellite: NOAA-17
Catalog number: 27453
Epoch time: 13354.48780973
Element set: 392
Inclination: 098.3113 deg
RA of node: 358.6656 deg
Eccentricity: 0.0011087
Arg of perigee: 344.4729 deg
Mean anomaly: 168.6829 deg
Mean motion: 14.24662881 rev/day
Decay rate: 1.97e-06 rev/day^2
Epoch rev: 59724
Checksum: 355
Satellite: NOAA-18
Catalog number: 28654
Epoch time: 13354.53781687
Element set: 881
Inclination: 099.1265 deg
RA of node: 325.6782 deg
Eccentricity: 0.0014952
Arg of perigee: 048.6492 deg
Mean anomaly: 058.1773 deg
Mean motion: 14.11914341 rev/day
Decay rate: 2.13e-06 rev/day^2
Epoch rev: 44235
Checksum: 325
Satellite: NOAA-19
Catalog number: 33591
Epoch time: 13354.53124135
Element set: 53
Inclination: 098.9256 deg
RA of node: 295.3059 deg
Eccentricity: 0.0013051
Arg of perigee: 263.2935 deg
Mean anomaly: 220.9002 deg
Mean motion: 14.11606849 rev/day
Decay rate: 2.83e-06 rev/day^2
Epoch rev: 25078
Checksum: 291
/EX
SB KEPS @ AMSAT $ORB13354.M
Orbital Elements 13354.MISC
HR AMSAT ORBITAL ELEMENTS FOR MANNED AND MISCELLANEOUS SATELLITES
FROM WA5QGD FORT WORTH,TX December 20, 2013
BID: ORB13354.M
TO ALL RADIO AMATEURS BT
Satellite: HUBBLE
Catalog number: 20580
Epoch time: 13354.80793413
Element set: 399
Inclination: 028.4697 deg
RA of node: 128.8451 deg
Eccentricity: 0.0002920
Arg of perigee: 174.6192 deg
Mean anomaly: 308.7656 deg
Mean motion: 15.04387704 rev/day
Decay rate: 3.045e-05 rev/day^2
Epoch rev: 9782
Checksum: 315
Satellite: ISS
Catalog number: 25544
Epoch time: 13355.00974940
Element set: 282
Inclination: 051.6507 deg
RA of node: 262.6713 deg
Eccentricity: 0.0004654
Arg of perigee: 291.8582 deg
Mean anomaly: 159.3805 deg
Mean motion: 15.49936784 rev/day
Decay rate: 1.8931e-04 rev/day^2
Epoch rev: 86368
Checksum: 334
Satellite: CO-58
Catalog number: 28895
Epoch time: 13354.13019056
Element set: 650
Inclination: 097.8479 deg
RA of node: 200.1782 deg
Eccentricity: 0.0016968
Arg of perigee: 211.8254 deg
Mean anomaly: 148.1924 deg
Mean motion: 14.61436716 rev/day
Decay rate: 1.190e-05 rev/day^2
Epoch rev: 43409
Checksum: 322
Satellite: FALCON
Catalog number: 30776
Epoch time: 13354.81215359
Element set: 762
Inclination: 035.4298 deg
RA of node: 135.2474 deg
Eccentricity: 0.0000746
Arg of perigee: 116.2712 deg
Mean anomaly: 001.0085 deg
Mean motion: 15.12821011 rev/day
Decay rate: 1.0047e-04 rev/day^2
Epoch rev: 37367
Checksum: 263
Satellite: MAST
Catalog number: 31126
Epoch time: 13354.76899425
Element set: 928
Inclination: 097.8967 deg
RA of node: 340.2110 deg
Eccentricity: 0.0092768
Arg of perigee: 190.0103 deg
Mean anomaly: 295.1311 deg
Mean motion: 14.54864925 rev/day
Decay rate: 7.28e-06 rev/day^2
Epoch rev: 35444
Checksum: 317
Satellite: CAPE1
Catalog number: 31130
Epoch time: 13354.85977576
Element set: 933
Inclination: 097.9163 deg
RA of node: 336.7613 deg
Eccentricity: 0.0099533
Arg of perigee: 206.7063 deg
Mean anomaly: 152.8990 deg
Mean motion: 14.53884389 rev/day
Decay rate: 9.63e-06 rev/day^2
Epoch rev: 35389
Checksum: 353
Satellite: COMPASS
Catalog number: 32787
Epoch time: 13354.19847022
Element set: 809
Inclination: 097.7280 deg
RA of node: 047.7829 deg
Eccentricity: 0.0015353
Arg of perigee: 055.6784 deg
Mean anomaly: 304.5882 deg
Mean motion: 14.86478570 rev/day
Decay rate: 4.128e-05 rev/day^2
Epoch rev: 30558
Checksum: 339
Satellite: AAUSAT2
Catalog number: 32788
Epoch time: 13354.14475167
Element set: 793
Inclination: 097.7290 deg
RA of node: 048.5224 deg
Eccentricity: 0.0014865
Arg of perigee: 055.1928 deg
Mean anomaly: 305.0684 deg
Mean motion: 14.87035318 rev/day
Decay rate: 4.921e-05 rev/day^2
Epoch rev: 30562
Checksum: 319
Satellite: DO-64
Catalog number: 32789
Epoch time: 13354.07907714
Element set: 829
Inclination: 097.7464 deg
RA of node: 053.4413 deg
Eccentricity: 0.0013836
Arg of perigee: 046.1233 deg
Mean anomaly: 015.0967 deg
Mean motion: 14.90466313 rev/day
Decay rate: 8.091e-05 rev/day^2
Epoch rev: 30579
Checksum: 322
Satellite: CO-66
Catalog number: 32791
Epoch time: 13354.15599495
Element set: 788
Inclination: 097.7279 deg
RA of node: 046.8385 deg
Eccentricity: 0.0016020
Arg of perigee: 058.0869 deg
Mean anomaly: 358.6691 deg
Mean motion: 14.85426461 rev/day
Decay rate: 3.941e-05 rev/day^2
Epoch rev: 30547
Checksum: 364
Satellite: RS-30
Catalog number: 32953
Epoch time: 13354.79124987
Element set: 482
Inclination: 082.5024 deg
RA of node: 312.1434 deg
Eccentricity: 0.0018243
Arg of perigee: 182.3807 deg
Mean anomaly: 177.7191 deg
Mean motion: 12.43040893 rev/day
Decay rate: 1.0e-07 rev/day^2
Epoch rev: 25309
Checksum: 286
Satellite: METEOR-M
Catalog number: 35865
Epoch time: 13354.77303689
Element set: 92
Inclination: 098.5776 deg
RA of node: 042.3675 deg
Eccentricity: 0.0001695
Arg of perigee: 258.3777 deg
Mean anomaly: 101.7209 deg
Mean motion: 14.21902573 rev/day
Decay rate: 4.9e-07 rev/day^2
Epoch rev: 22098
Checksum: 325
Satellite: RS-38
Catalog number: 35869
Epoch time: 13354.98427673
Element set: 44
Inclination: 098.5719 deg
RA of node: 042.4308 deg
Eccentricity: 0.0003842
Arg of perigee: 253.2148 deg
Mean anomaly: 106.8608 deg
Mean motion: 14.22166914 rev/day
Decay rate: 1.46e-06 rev/day^2
Epoch rev: 22104
Checksum: 309
Satellite: JUGNU
Catalog number: 37839
Epoch time: 13353.15371398
Element set: 525
Inclination: 019.9609 deg
RA of node: 265.9965 deg
Eccentricity: 0.0019070
Arg of perigee: 160.4584 deg
Mean anomaly: 313.4796 deg
Mean motion: 14.12223044 rev/day
Decay rate: 4.61e-06 rev/day^2
Epoch rev: 11307
Checksum: 303
Satellite: SRMSAT
Catalog number: 37841
Epoch time: 13354.18026431
Element set: 524
Inclination: 019.9717 deg
RA of node: 275.5193 deg
Eccentricity: 0.0011921
Arg of perigee: 118.2271 deg
Mean anomaly: 028.3314 deg
Mean motion: 14.10281071 rev/day
Decay rate: 4.27e-06 rev/day^2
Epoch rev: 11306
Checksum: 256
Satellite: RAX-2
Catalog number: 37853
Epoch time: 13354.78971687
Element set: 675
Inclination: 101.7053 deg
RA of node: 295.0618 deg
Eccentricity: 0.0227019
Arg of perigee: 211.4851 deg
Mean anomaly: 180.2927 deg
Mean motion: 14.86034007 rev/day
Decay rate: 8.010e-05 rev/day^2
Epoch rev: 11613
Checksum: 298
Satellite: AUBIESAT
Catalog number: 37854
Epoch time: 13354.45983986
Element set: 660
Inclination: 101.7090 deg
RA of node: 295.8763 deg
Eccentricity: 0.0226176
Arg of perigee: 210.4613 deg
Mean anomaly: 270.6785 deg
Mean motion: 14.86978035 rev/day
Decay rate: 8.168e-05 rev/day^2
Epoch rev: 11611
Checksum: 333
